Location: Newark
(42.8481°N, 0.4872°E)
Time: 22:36:19
(UTC+00:00)

Vanguard 1 - Pass Details

Date: 28 October 2020
Orbit: 650 x 3833 km, 34.2° (Epoch: 28 November)

Event Time Altitude Azimuth Distance (km) Brightness Sun altitude
Rises 18:50:20 0° 282° (WNW) 7,631 16.0 -21.6°
Reaches altitude 10° 18:56:49 10° 275° (W) 6,227 15.3 -22.8°
Maximum altitude 19:11:09 31° 223° (SW) 3,558 13.2 -25.4°
Drops below altitude 10° 19:20:17 10° 166° (SSE) 3,910 12.9 -27.1°
Enters shadow 19:21:40 - 161° (SSE) 4,167 13.0 -27.3°
Sets 19:23:18 0° 155° (SSE) 4,522 - -27.6°
